Date,TemperatureHighF,TemperatureAvgF,TemperatureLowF,DewpointHighF,DewpointAvgF,DewpointLowF,HumidityHigh,HumidityAvg,HumidityLow,PressureMaxIn,PressureMinIn,WindSpeedMaxMPH,WindSpeedAvgMPH,GustSpeedMaxMPH,PrecipitationSumIn
2013-3-1,35.2,33.4,30.9,33.6,30.6,24.8,97,90,78,29.97,29.84,2,0,6,0.08
2013-3-2,31.8,29.5,27.8,26.9,25.0,22.1,91,83,72,29.99,29.92,3,2,10,0.00
2013-3-3,29.6,27.3,25.7,25.0,22.7,18.6,93,83,70,30.06,29.97,4,1,11,0.00
2013-3-4,42.3,31.9,24.9,25.0,20.9,18.3,87,66,39,30.18,30.05,3,1,11,0.05
2013-3-5,52.2,40.3,29.0,41.5,33.1,24.8,92,76,62,30.07,29.52,3,0,9,0.39
2013-3-6,41.1,34.0,30.9,38.7,32.2,29.6,96,93,89,30.15,29.59,6,1,18,0.14
2013-3-7,39.1,36.1,33.8,34.4,32.5,31.0,93,87,79,30.29,30.14,3,1,10,0.04
2013-3-8,46.8,38.3,31.0,31.8,28.3,26.0,86,68,47,30.39,30.27,5,1,13,0.00
2013-3-9,64.6,43.9,25.2,34.7,29.5,23.5,95,63,27,30.39,30.13,2,0,5,0.00
2013-3-10,76.3,56.1,39.3,42.3,34.0,30.4,83,50,19,30.14,29.96,6,1,8,0.00
2013-3-11,62.1,59.7,55.5,51.6,39.6,31.4,86,49,35,29.96,29.69,9,3,21,0.02
2013-3-12,55.4,41.5,38.4,51.6,37.0,31.1,95,84,72,30.03,29.73,6,1,13,0.20
2013-3-13,38.6,37.8,37.0,33.7,32.8,32.0,87,82,78,30.01,29.97,2,0,4,0.00
2013-3-14,44.6,33.1,26.1,23.4,19.7,15.9,83,60,33,30.33,30.16,6,2,15,0.00
2013-3-15,59.6,41.9,24.2,41.3,28.7,19.5,89,62,40,30.20,29.82,5,1,10,0.00
2013-3-16,62.8,51.9,43.2,56.0,46.8,40.7,97,83,64,29.89,29.59,8,2,17,0.21
2013-3-17,47.9,37.8,33.6,42.2,35.4,32.7,97,91,80,30.11,29.89,3,1,9,0.21
2013-3-18,53.9,44.3,34.2,45.6,39.0,33.4,98,82,72,30.05,29.69,5,2,14,0.69
2013-3-19,54.4,46.2,38.3,47.7,28.0,8.8,96,55,22,30.02,29.68,11,4,29,0.05
2013-3-20,49.7,39.3,32.0,26.9,18.0,12.6,81,43,27,30.04,29.77,10,3,24,0.00
2013-3-21,31.9,29.6,27.0,22.2,19.4,17.1,80,66,57,29.89,29.88,6,4,13,0.00
2013-3-22,44.8,31.9,22.9,18.3,15.3,12.9,68,52,29,30.06,29.96,5,1,12,0.00
2013-3-23,51.7,36.4,22.7,26.3,20.8,17.8,89,57,27,30.07,29.92,3,1,7,0.00
2013-3-24,44.9,36.5,30.5,37.6,30.2,23.4,97,79,51,29.91,29.41,3,1,7,0.62
2013-3-25,38.9,35.5,33.4,34.7,32.8,30.8,95,90,81,29.79,29.42,5,2,15,0.15
2013-3-26,42.2,35.4,32.9,37.2,33.2,30.9,97,92,77,30.14,29.79,6,1,17,0.19
2013-3-27,42.0,36.5,32.9,34.5,30.5,28.1,93,79,62,30.23,30.13,6,2,15,0.00
2013-3-28,46.7,40.0,31.8,30.8,28.0,26.0,80,63,46,30.27,30.20,5,2,12,0.00
2013-3-29,55.6,45.7,36.8,32.6,29.5,25.0,82,56,32,30.29,30.15,5,1,14,0.00
2013-3-30,61.1,48.2,36.1,34.7,30.7,26.3,88,55,27,30.23,29.96,3,1,9,0.00
2013-3-31,52.6,47.6,41.5,51.4,44.6,33.5,97,90,65,29.96,29.74,3,0,10,0.24